User: anonymous   Login
Location: Unspecified
(0.0000°N, 0.0000°E)
Time: 08:49:03
(UTC+00:00)
Language:

EXALTA-1 - Orbit

View from above orbital plane
View from above orbital plane
View from above satellite
View from above satellite

Ground track
Ground track

The orbit data is extracted from the following two-line orbital elements,

1 42734U 98067MP  18267.81943621 +.00156844 +00000-0 +55600-3 0  9995
2 42734 051.6247 195.2722 0003420 183.9313 176.1666 15.88022894076162
Epoch (UTC): 24 September 2018 19:39:59
Eccentricity: 0.0003420
inclination: 51.6247°
perigee height: 305 km
apogee height: 310 km
right ascension of ascending node: 195.2722°
argument of perigee: 183.9313°
revolutions per day: 15.88022894
mean anomaly at epoch: 176.1666°
orbit number at epoch: 7616

The dashed part of the orbit path shows where the satellite is in the earth's shadow,  

DLR